Regional Weather Roundup
Issued by NWS

Home | Current Version | Previous Version | Graphics & Text | Print | Product List | Glossary On
Versions: 1 2 3 4 5 6 7 8 9 10 11 12 13 14 15 16 17 18 19 20 21 22 23 24 25 26 27 28 29 30 31 32 33 34 35 36 37 38 39 40 41 42 43 44 45 46 47 48 49 50
000
ASUS45 KABQ 281510
RWRNM
NEW MEXICO REGIONAL WEATHER ROUNDUP
NATIONAL WEATHER SERVICE ALBUQUERQUE NM
900 AM MDT THU APR 28 2016

NOTE: "FAIR" MEANS FEW OR NO CLOUDS BELOW 12,000 FEET AGL WITH NO
       SIGNIFICANT WEATHER OR OBSTRUCTIONS TO VISION.

      THIS PRODUCT IS RELEASED AS TWO VERSIONS.  ONE VERSION NEAR
      THE TOP OF THE HOUR CONTAINING PRELIMINARY DATA FROM ALBUQUERQUE
      AND OTHER STATIONS.  A FINAL VERSION WITH ADDITIONAL DATA IS
      ISSUED ABOUT 10 MINUTES AFTER THE HOUR.

NMZ501-503-504-510>518-281600-
NORTHWEST PLATEAU/NORTHCENTRAL MOUNTAINS

CITY           SKY/WX    TMP DP  RH WIND       PRES   REMARKS
FARMINGTON     PTSUNNY   51  27  39 E12       29.76R
LOS ALAMOS     FAIR      51  27  38 CALM      29.88F
SANTA FE       CLOUDY    56  22  26 S8        29.84F
TAOS           FAIR      48  30  49 SE3       29.90S
ANGEL FIRE     PTSUNNY   36  31  83 CALM      29.96F

$$
NMZ402-403-502-505>509-281600-
WESTCENTRAL MOUNTAINS/SOUTHWEST MOUNTAINS

CITY           SKY/WX    TMP DP  RH WIND       PRES   REMARKS
GALLUP         FAIR      50  25  37 SW16G23   29.81R
GRANTS         FAIR      55  19  25 S9G20     29.83F
SILVER CITY      N/A     57  18  21 S6        29.88R

$$
NMZ407-409-411-412-281600-
SOUTHERN DESERTS

CITY           SKY/WX    TMP DP  RH WIND       PRES   REMARKS
LORDSBURG      FAIR      61  21  21 CALM      29.82S
DEMING         FAIR      62  22  21 W8        29.84S
LAS CRUCES     FAIR      66  19  16 SW14G20   29.85S
HOLLOMAN AFB   FAIR      68  19  15 S15       29.82R
ALAMOGORDO     FAIR      68  19  15 S12G18    29.84R
T OR C         FAIR      62  19  19 S14       29.81R

$$
NMZ519>523-281600-
CENTRAL VALLEYS/CENTRAL HIGHLANDS

CITY           SKY/WX    TMP DP  RH WIND       PRES   REMARKS
ALBUQUERQUE    FAIR      59  27  29 SE5       29.81S
DOUBLE EAGLE   PTSUNNY   61  27  27 E7        29.83S
MORIARTY ARPT  FAIR      59  22  24 SE14      29.87S
CLINES CORNERS CLOUDY    48  28  46 E12       29.88S
BELEN          FAIR      62  17  17 S8        29.81S
SOCORRO        FAIR      61  21  21 SE12      29.81S

$$
NMZ524>526-539-540-281600-
SOUTHCENTRAL MOUNTAINS

CITY           SKY/WX    TMP DP  RH WIND       PRES   REMARKS
RUIDOSO          N/A     57  14  18 S20G28    29.91F

$$
NMZ527>531-281600-
NORTHEAST HIGHLANDS/NORTHEAST PLAINS

CITY           SKY/WX    TMP DP  RH WIND       PRES   REMARKS
LAS VEGAS      PTSUNNY   44  29  55 NE14      29.92R
RATON          CLOUDY    46  30  53 CALM      29.94R
CLAYTON        CLOUDY    43  34  70 NE17      29.96R

$$
NMZ532>537-281600-
EASTCENTRAL PLAINS

CITY           SKY/WX    TMP DP  RH WIND       PRES   REMARKS
TUCUMCARI      FAIR      56  41  57 E8        29.86R
CANNON AFB     FAIR      60  42  51 SE9       29.83F
CLOVIS AIRPORT FAIR      59  39  47 E9        29.85F

$$
NMZ028-029-538-281600-
SOUTHEAST PLAINS

CITY           SKY/WX    TMP DP  RH WIND       PRES   REMARKS
ROSWELL        FAIR      67  21  17 S6        29.78S
ARTESIA        FAIR      66  23  19 S6        29.79S
CARLSBAD       FAIR      64  24  21 E7        29.77F
HOBBS          SUNNY     68  32  26 S12       29.82F


$$




USA.gov is the U.S. government's official web portal to all federal, state and local government web resources and services.